| time (UTC) | temp F | wind direction | speed knots | gust knots | rain 1hr in | rain 24hr in | rain mn in | humidity % | barometer mb |
| 20260504204512 | 76 | 267 | 2.6 | 8.7 | 0.00 | 0.00 | 0.00 | 48 | 1016.1 |
| 20260504203008 | 75 | 241 | 4.3 | 11.3 | 0.00 | 0.00 | 0.00 | 47 | 1016.3 |
| 20260504201508 | 76 | 219 | 3.5 | 11.3 | 0.00 | 0.00 | 0.00 | 48 | 1016.7 |
| 20260504200008 | 75 | 276 | 5.2 | 9.6 | 0.00 | 0.00 | 0.00 | 48 | 1017.0 |
| 20260504194503 | 76 | 254 | 1.7 | 10.4 | 0.00 | 0.00 | 0.00 | 48 | 1017.1 |
| 20260504193002 | 76 | 205 | 3.5 | 10.4 | 0.00 | 0.00 | 0.00 | 47 | 1017.3 |
| 20260504191621 | 77 | 230 | 3.5 | 13.9 | 0.00 | 0.00 | 0.00 | 48 | 1017.3 |
| 20260504190058 | 76 | 224 | 4.3 | 11.3 | 0.00 | 0.00 | 0.00 | 47 | 1017.6 |
| 20260504184556 | 76 | 261 | 2.6 | 8.7 | 0.00 | 0.00 | 0.00 | 46 | 1017.9 |
| 20260504183056 | 76 | 279 | 4.3 | 8.7 | 0.00 | 0.00 | 0.00 | 46 | 1017.9 |
| 20260504181556 | 76 | 171 | 1.7 | 8.7 | 0.00 | 0.00 | 0.00 | 47 | 1017.9 |
| 20260504180055 | 75 | 220 | 5.2 | 10.4 | 0.00 | 0.00 | 0.00 | 47 | 1018.1 |
| 20260504174557 | 76 | 199 | 3.5 | 12.2 | 0.00 | 0.00 | 0.00 | 46 | 1018.1 |
| 20260504173053 | 75 | 264 | 3.5 | 14.8 | 0.00 | 0.00 | 0.00 | 48 | 1018.1 |
| 20260504171555 | 75 | 215 | 5.2 | 13.0 | 0.00 | 0.00 | 0.00 | 47 | 1018.3 |
| 20260504081552 | 58 | 306 | 0.0 | 0.0 | 0.00 | 0.00 | 0.00 | 85 | 1018.1 |
| 20260504050021 | 62 | 246 | 0.0 | 1.7 | 0.00 | 0.00 | 0.00 | 79 | 1020.0 |
| 20260504044521 | 63 | 245 | 0.0 | 0.9 | 0.00 | 0.00 | 0.00 | 77 | 1019.8 |
| 20260504043020 | 63 | 245 | 0.0 | 1.7 | 0.00 | 0.00 | 0.00 | 77 | 1020.0 |
| 20260504041519 | 64 | 242 | 0.9 | 2.6 | 0.00 | 0.00 | 0.00 | 76 | 1020.0 |
| 20260504040021 | 64 | 240 | 0.9 | 1.7 | 0.00 | 0.00 | 0.00 | 74 | 1019.9 |
| 20260504034520 | 64 | 248 | 0.0 | 1.7 | 0.00 | 0.00 | 0.00 | 73 | 1020.1 |
| 20260504033018 | 65 | 248 | 0.9 | 3.5 | 0.00 | 0.00 | 0.00 | 72 | 1020.0 |
| 20260504031518 | 65 | 248 | 0.9 | 4.3 | 0.00 | 0.00 | 0.00 | 71 | 1020.2 |
| 20260504030018 | 65 | 244 | 0.0 | 2.6 | 0.00 | 0.00 | 0.00 | 68 | 1020.1 |
| 20260504024517 | 66 | 242 | 0.9 | 3.5 | 0.00 | 0.00 | 0.00 | 66 | 1019.9 |
| 20260504023016 | 66 | 246 | 1.7 | 4.3 | 0.00 | 0.00 | 0.00 | 64 | 1019.8 |
| 20260504021517 | 66 | 238 | 1.7 | 7.0 | 0.00 | 0.00 | 0.00 | 63 | 1019.7 |
| 20260504020015 | 66 | 240 | 1.7 | 5.2 | 0.00 | 0.00 | 0.00 | 62 | 1019.5 |
| 20260504014515 | 67 | 225 | 0.9 | 2.6 | 0.00 | 0.00 | 0.00 | 62 | 1019.4 |
| 20260504013019 | 67 | 234 | 0.9 | 3.5 | 0.00 | 0.00 | 0.00 | 59 | 1019.3 |
| 20260504011513 | 68 | 236 | 0.9 | 3.5 | 0.00 | 0.00 | 0.00 | 59 | 1019.2 |
| 20260504010013 | 69 | 229 | 0.9 | 4.3 | 0.00 | 0.00 | 0.00 | 58 | 1019.2 |
| 20260504004531 | 70 | 244 | 2.6 | 4.3 | 0.00 | 0.00 | 0.00 | 55 | 1019.0 |
| 20260504003017 | 71 | 239 | 1.7 | 4.3 | 0.00 | 0.00 | 0.00 | 52 | 1018.9 |
| 20260504001527 | 71 | 221 | 0.9 | 4.3 | 0.00 | 0.00 | 0.00 | 49 | 1018.8 |
| 20260504000012 | 72 | 217 | 1.7 | 3.5 | 0.00 | 0.00 | 0.00 | 48 | 1018.7 |
| 20260503234516 | 73 | 212 | 1.7 | 4.3 | 0.00 | 0.00 | 0.00 | 47 | 1018.8 |
| 20260503233009 | 73 | 244 | 2.6 | 5.2 | 0.00 | 0.00 | 0.00 | 46 | 1018.9 |
| 20260503231508 | 73 | 230 | 1.7 | 5.2 | 0.00 | 0.00 | 0.00 | 44 | 1018.9 |
| 20260503230010 | 74 | 195 | 4.3 | 7.0 | 0.00 | 0.00 | 0.00 | 44 | 1019.0 |
| 20260503224509 | 74 | 227 | 0.9 | 5.2 | 0.00 | 0.00 | 0.00 | 45 | 1019.1 |
| 20260503223009 | 75 | 242 | 1.7 | 5.2 | 0.00 | 0.00 | 0.00 | 43 | 1019.1 |
| 20260503221503 | 75 | 260 | 2.6 | 6.1 | 0.00 | 0.00 | 0.00 | 42 | 1019.3 |
| 20260503220006 | 75 | 213 | 2.6 | 6.1 | 0.00 | 0.00 | 0.00 | 43 | 1019.4 |
| 20260503214500 | 75 | 198 | 3.5 | 6.1 | 0.00 | 0.00 | 0.00 | 41 | 1019.5 |
| 20260503213059 | 74 | 211 | 3.5 | 8.7 | 0.00 | 0.00 | 0.00 | 43 | 1019.7 |
| 20260503211558 | 75 | 254 | 3.5 | 6.1 | 0.00 | 0.00 | 0.00 | 42 | 1019.9 |
| 20260503210058 | 74 | 243 | 3.5 | 7.0 | 0.00 | 0.00 | 0.00 | 41 | 1020.1 |